STARLINK-5754, 55579

Orbit data source: Space-Track

STARLINK-5754, 55579 is a payload satellite owned by SpaceX/Seattle (US) in LEO that was launched on Sun, 12 Feb 2023 UTC via an FALCON 9 launch vehicle from the Air Force Eastern Test Range (AFETR). Payload-class satellites include a variety of spacecraft equipped with specific instruments for various scientific and technological missions. These include communications satellites like Starlink; space stations such as the ISS; scientific satellites like the Hubble; Earth observation satellites from companies like Planet Labs, Umbra, and HawkEye 360; GPS; miniature CubeSats for education and research; and military/defense satellites.

Loading next visibility...
Identifier
55579, 2023-020L
Orbit
LEO
Country
Flag of USUS
Related business
Manufacturer
SpaceX/Seattle
Mission
Operational Commercial Communications
Bus & Motor
STARLINK, Unknown motor
Mass
305 kg wet, ~290 kg dry
Launch date (UTC)
2023-02-12 (3 years ago)
Launch vehicle
FALCON 9
Launch site
Air Force Eastern Test Range (AFETR)
Object type
Payload
Rocket body
Debris
Shape & HBR
Box + 1 Pan, 10.1 m
Radar Cross Section
13.562 m², Large (>1 m²)

Expand to show TLE details & history
Last TLE update: 9 hours ago

TLE from 9 hours ago
0 STARLINK-5754
1 55579U 23020L   26061.99805164 -.00000829  00000-0 -46349-4 0  9996
2 55579  43.0048  40.9198 0001307 267.0618  93.0075 15.02525959167915
Epoch: 2026-03-02T23:57Z
TLE epoch observation values (Epoch: 2026-03-02T23:57:11.661Z)
Latitude
-0.00002°
Longitude
-119.16223°
Altitude
558.937 km
Speed
7.584 km/s
True Right ascension
02h 43m 40s
True Declination
0° 00' 00"
Sunlit
Object was in daylight at epoch
Visualization orbit readout
Latitude
Unknown
Longitude
Unknown
Altitude
Unknown
Speed
Unknown
Apparent Right ascension
Unknown
Apparent Declination
Unknown
Sunlit
N/A
Visualization observer readout
Local Sidereal Time
13:10:35
Azimuth
Unknown
Elevation
Unknown
Doppler factor
Unknown
Orbital elements
Apogee altitude
561.941 km
Perigee altitude
560.127 km
Semi-major axis
6,939.171 km
Eccentricity
0.00013
Inclination
43.0048°
RAAN
40.9198°
Arg. of periapsis
267.0618°
True anomaly
93.02246°
Mean anomaly
93.0075°
Eccentric anomaly
93.01498°
Mean motion
3.75476 °/min
Orbital period
95.88 mins
BSTAR
-0.000046349
Loading maneuver chart data...
Computing Atmospheric mass density...
Loading historical data...
Loading historical data...
Loading historical data...
Loading historical data...
Loading historical data...
Loading historical data...
Loading historical data...

Documentation

Showing up to 5 results
|